STARLINK-32755, 62842

Orbit data source: Space-Track

STARLINK-32755, 62842 is a payload satellite owned by SpaceX/Seattle (US) in LEO that was launched on Mon, 27 Jan 2025 UTC via an FALCON 9 launch vehicle from the Air Force Eastern Test Range (AFETR). Payload-class satellites include a variety of spacecraft equipped with specific instruments for various scientific and technological missions. These include communications satellites like Starlink; space stations such as the ISS; scientific satellites like the Hubble; Earth observation satellites from companies like Planet Labs, Umbra, and HawkEye 360; GPS; miniature CubeSats for education and research; and military/defense satellites.

Loading next visibility...
Identifier
62842, 2025-019P
Orbit
LEO
Last TLE update
13 hours ago
Origin
Manufacturer
SpaceX/Seattle
Mission
Operational Commercial Communications
Bus & Motor
STARLINK V2M, Unknown motor
Mass
730 kg wet, ~700 kg dry
Launch date (UTC)
2025-01-27 (5 months ago)
Launch vehicle
FALCON 9
Launch site
Air Force Eastern Test Range (AFETR)
Object type
Payload
Rocket body
Debris
Shape & HBR
Box + 2 Pan, 29 m
Radar Cross Section
33.884 m², Large (>1 m²)

Expand to show TLE details & history

TLE from 13 hours ago
0 STARLINK-32755
1 62842U 25019P   25191.83372774  .00000028  00000-0  10566-4 0  9990
2 62842  43.0104   7.7912 0001795 356.7454   3.1925 15.27574624 26313
Epoch: 2025-07-10T20:00Z
TLE epoch observation values (Epoch: 2025-07-10T20:00:34.076Z)
Latitude
-0.10031°
Longitude
138.54795°
Altitude
481.625 km
Speed
7.627 km/s
True Right ascension
00h 30m 44s
True Declination
0° 05' 59"
Sunlit
Object was in daylight at epoch
Visualization orbit readout
Latitude
-4.71235°
Longitude
-39.45029°
Altitude
484.797 km
Speed
7.624 km/s
Apparent Right ascension
11h 25m 05s
Apparent Declination
-23° 02' 45"
Sunlit
Object is in daylight
Visualization observer readout
Local Sidereal Time
21:40:23
Azimuth
299.503° NW
Elevation
-62.202°
Doppler factor
1
Orbital elements
Apogee altitude
486.241 km
Perigee altitude
483.777 km
Semi-major axis
6,863.146 km
Eccentricity
0.00018
Inclination
43.0104°
RAAN
7.7912°
Arg. of periapsis
356.7454°
True anomaly
Unknown
Mean anomaly
3.1925°
Eccentric anomaly
Unknown
Mean motion
3.81732 °/min
Orbital period
94.31 mins
BSTAR
0.000010566
Loading maneuver chart data...
Loading SW <> Apogee altitude chart data...
Loading historical data...
Loading historical data...
Loading historical data...
Loading historical data...
Loading historical data...
Loading historical data...
Loading historical data...

STARLINK-32755 Visibility forecast

Observer location: undefined°, undefined°

Span
Click to sort rows by Start time (UTC) header in descending order
Start Az.
Max El. time (UTC)
Max El. Az.
Max El.
End time (UTC)
End Az.
6 mins2025-07-11 15:02:41.486Z219.577° SW2025-07-11 15:05:41.486Z160.258° S32.385°2025-07-11 15:08:41.486Z85.681° E
5 mins2025-07-11 16:42:41.486Z271.291° WNW2025-07-11 16:44:41.486Z340.416° N42.168°2025-07-11 16:47:41.486Z68.664° E
5 mins2025-07-11 18:21:41.486Z294.395° NW2025-07-11 18:23:41.486Z346.269° N38.432°2025-07-11 18:26:41.486Z80.483° E
6 mins2025-07-11 20:00:41.486Z280.824° WNW2025-07-11 20:02:41.486Z235.558° WSW41.342°2025-07-11 20:06:41.486Z121.396° SE
|